Regional Weather Roundup
Issued by NWS

Home | Current Version | Previous Version | Graphics & Text | Print | Product List | Glossary On
Versions: 1 2 3 4 5 6 7 8 9 10 11 12 13 14 15 16 17 18 19 20 21 22 23 24 25 26 27 28 29 30 31 32 33 34 35 36 37 38 39 40 41 42 43 44 45 46 47 48 49 50
000
ASUS43 KOAX 172210
RWRNE

WEATHER ROUNDUP FOR NEBRASKA
NATIONAL WEATHER SERVICE OMAHA NE
400 PM CST SUN DEC 17 2017

NOTES: SATELLITE DATA IS BEING USED TO AUGMENT CLOUD COVER ABOVE
       12000 FEET.
       "FAIR" INDICATES FEW OR NO CLOUDS BELOW 12,000 FEET WITH NO
       SIGNIFICANT WEATHER AND/OR OBSTRUCTIONS TO VISIBILITY.


NEZ001>004-019>022-054>056-172300-
NEBRASKA PANHANDLE

CITY           SKY/WX    TMP DP  RH WIND       PRES   REMARKS
SCOTTSBLUFF    SUNNY     48  21  34 W14G26    29.83F
ALLIANCE       SUNNY     44  27  51 SW14      29.84F
CHADRON        MOSUNNY   46  26  45 SW14      29.82F
GORDON         FAIR      42  28  56 SW10      29.83F
KIMBALL        SUNNY     41  26  56 W9        29.87S
SIDNEY         SUNNY     43  26  51 W12       29.88F
$$

NEZ057>060-069>072-079>082-172300-
SOUTHWEST NEBRASKA

CITY           SKY/WX    TMP DP  RH WIND       PRES   REMARKS
NORTH PLATTE   CLOUDY    40  32  73 SW5       29.94S
IMPERIAL       MOSUNNY   40  29  64 S7        29.93F
LEXINGTON      CLOUDY    40  32  70 NW5       29.97S
MCCOOK         CLOUDY    41  31  67 CALM      29.96F
OGALLALA       SUNNY     43  29  57 SW5       29.91S
$$

NEZ005>010-023>029-035>040-094-172300-
NORTH CENTRAL NEBRASKA

CITY           SKY/WX    TMP DP  RH WIND       PRES   REMARKS
VALENTINE      CLOUDY    40  29  64 S7        29.90F
AINSWORTH      CLOUDY    38  30  72 SW7       29.92R WCI  33
BROKEN BOW     CLOUDY    38  30  73 NW6       29.94S WCI  33
O`NEILL        CLEAR     39  28  66 CALM      29.94F
ORD            CLOUDY    40  29  64 N3        29.94F
THEDFORD       CLOUDY    38  31  74 SW5       29.92S WCI  35
$$

NEZ041-046>049-061>064-073>077-083>087-172300-
SOUTH CENTRAL NEBRASKA

CITY           SKY/WX    TMP DP  RH WIND       PRES   REMARKS
GRAND ISLAND   PTCLDY    41  31  67 N10       29.97R
AURORA         CLEAR     41  29  62 NW6       29.96S
HASTINGS       CLEAR     41  29  62 NW5       29.97R
HEBRON         MOCLDY    43  31  63 CALM      29.98S
HOLDREGE       CLOUDY    40  32  73 NW5       29.97R
KEARNEY        CLOUDY    39  30  70 N6        29.97S WCI  35
YORK           CLEAR     41  32  70 NW6       29.97R
$$

NEZ011>018-030>034-042>045-172300-
NORTHEAST NEBRASKA

CITY           SKY/WX    TMP DP  RH WIND       PRES   REMARKS
NORFOLK        CLOUDY    38  26  62 NE8       29.94S WCI  32
ALBION         MOCLDY    38  29  69 N5        29.96S WCI  35
BLAIR          CLOUDY    32  28  85 NW5       29.96R WCI  28
COLUMBUS       MOCLDY    40  28  62 N7        29.97R
FREMONT        PTCLDY    34  28  80 CALM      29.98R
TEKAMAH        CLOUDY    36  27  69 N7        29.97S WCI  30
WAYNE          MOCLDY    36  29  78 N7        29.95S WCI  30
$$

NEZ050>053-065>068-078-088>093-172300-
SOUTHEAST NEBRASKA

CITY           SKY/WX    TMP DP  RH WIND       PRES   REMARKS
LINCOLN        CLEAR     41  29  62 CALM      30.00R
OMAHA EPPLEY   MOCLDY    36  26  67 NW7       29.98R WCI  30
BEATRICE       PTCLDY    38  33  82 NE3       29.99R FOG
FALLS CITY     CLOUDY    41  37  86 NW5       29.99R
NEBRASKA CITY  CLOUDY    34  34 100 W3        29.99R FOG
PLATTSMOUTH    CLOUDY    35  32  88 CALM      29.97R FOG
$$

NEZ044-045-051>053-067-172300-
OMAHA AREA

CITY           SKY/WX    TMP DP  RH WIND       PRES   REMARKS
OMAHA EPPLEY   MOCLDY    36  26  67 NW7       29.98R WCI  30
BLAIR          CLOUDY    32  28  85 NW5       29.96R WCI  28
FREMONT        PTCLDY    34  28  80 CALM      29.98R
MILLARD        CLEAR     37  29  71 NW5       29.98R WCI  34
OFFUTT AFB     CLEAR     37  28  71 NE6       29.97R WCI  32
PLATTSMOUTH    CLOUDY    35  32  88 CALM      29.97R FOG
WAHOO          FAIR      36  27  70 N5        29.97R WCI  32
$$



USA.gov is the U.S. government's official web portal to all federal, state and local government web resources and services.